Location: Newark
(56.0692°N, 115.8617°E)
Time: 12:48:18
(UTC+00:00)

deb Explorer IX - Pass Details

Date: 27 May 2020
Orbit: 543 x 1102 km, 38.8° (Epoch: 06 July)

Event Time Altitude Azimuth Distance (km) Brightness Sun altitude
Rises 13:53:28 0° 224° (SW) 3,057 ? -7.0°
Reaches altitude 10° 13:57:13 10° 195° (SSW) 2,273 ? -7.3°
Maximum altitude 13:59:21 12° 171° (S) 2,184 ? -7.4°
Drops below altitude 10° 14:01:36 10° 148° (SSE) 2,431 ? -7.6°
Enters shadow 14:02:02 - 144° (SE) 2,511 ? -7.6°
